Home   Weather   Gorgan   Past weeks

Flag for Iran Past Weather in Gorgan, Iran — Yesterday and Last 2 Weeks

Now
55 °F

Clear.


Feels Like: 55 °F
Forecast: 52 / 62 °F
Wind: No wind

Location: Gorgan Airport

Current Time: Apr 25, 2017 at 3:54:01 am

Latest Report: Apr 25, 2017 at 3:30 am


Visibility: 10 mi

Pressure: 30.07 "Hg

Humidity: 94%

Dew Point: 54 °F

Location of GorganLocation

Past Weather in Gorgan — Graph

°F

Gorgan Temperature Yesterday

Maximum temperature yesterday: 77 °F (at 12:30 pm)
Minimum temperature yesterday: 55 °F (at 12:30 am)
Average temperature yesterday: 63 °F

High & Low Weather Summary for the Past Weeks

 TemperatureHumidityPressure
High91 °F (Apr 22, 3:30 pm)100% (Apr 11, 1:30 am)30.39 "Hg (Apr 11, 1:30 am)
Low45 °F (Apr 13, 5:30 am)20% (Apr 22, 2:30 pm)29.59 "Hg (Apr 14, 4:30 pm)
Average62 °F81%30.02 "Hg
* Reported Apr 10 2:30 am — Apr 25 2:30 am, Gorgan, Weather by CustomWeather, © 2017

Note: Actual official high and low records may vary slightly from our data, if they occured in-between our weather recording intervals... More about our weather records

Advertising

Gorgan Weather History for the Previous 24 Hours

Scroll right to see more
 ConditionsComfort  
Time TempWeatherWind HumidityBarometerVisibility
2:30 am
Tue, Apr 25
55 °FClear.No wind94%30.07 "Hg10 mi
1:30 am55 °FClear.No wind94%30.04 "Hg10 mi
12:30 am59 °FClear.7 mph88%30.01 "Hg10 mi
11:30 pm
Mon, Apr 24
59 °FPassing clouds.9 mph82%30.04 "HgN/A
10:30 pm59 °FMostly cloudy.12 mph88%30.09 "HgN/A
10:00 pm59 °FMostly cloudy.12 mph88%30.09 "HgN/A
9:30 pm61 °FMostly cloudy.No wind77%30.09 "Hg5 mi
8:30 pm61 °FMostly cloudy.16 mph83%30.07 "Hg5 mi
7:30 pm61 °FFog.23 mph83%30.04 "Hg3 mi
6:30 pm63 °FFog.18 mph83%29.98 "Hg2 mi
5:30 pm64 °FBroken clouds.14 mph78%29.95 "Hg2 mi
4:30 pm66 °FBroken clouds.14 mph78%29.92 "Hg2 mi
3:30 pm66 °FBroken clouds.25 mph83%29.92 "Hg2 mi
2:30 pm70 °FBroken clouds.32 mph69%29.89 "Hg2 mi
1:30 pm77 °FPartly sunny.30 mph65%29.86 "Hg2 mi
1:00 pm77 °FPartly sunny.16 mph54%29.83 "Hg4 mi
12:30 pm77 °FPartly sunny.12 mph54%29.83 "Hg4 mi
11:30 am75 °FPartly sunny.12 mph65%29.77 "Hg3 mi
10:30 am66 °FFog.16 mph83%29.77 "Hg3 mi
10:00 am61 °FPartly sunny.18 mph88%29.80 "Hg4 mi
9:30 am61 °FFog.No wind88%29.77 "Hg2 mi
8:30 am61 °FFog.7 mph88%29.77 "Hg2 mi
7:30 am61 °FFog.7 mph94%29.77 "Hg2 mi
6:30 am59 °FFog.12 mph94%29.74 "Hg2 mi
5:30 am59 °FFog.18 mph100%29.74 "Hg3 mi
4:30 am61 °FFog.30 mph94%29.74 "Hg3 mi
3:30 am59 °FPassing clouds.23 mph94%29.71 "Hg5 mi
Weather by CustomWeather, © 2017

See weather overviewHow to use our weather pages